NSS-7

Last updated on Sun Jan 21 2024 00:02:36 GMT+0000 (Coordinated Universal Time)

1 27414U 02019A 24020.45696074 -.00000162 00000+0 00000+0 0 9997 2 27414 7.2668 66.2214 0002647 251.3416 306.2509 1.00271192 79757

Satellite not in orbit

NSS-7